Regional Weather Roundup
Issued by NWS

Home | Current Version | Previous Version | Graphics & Text | Print | Product List | Glossary Off
Versions: 1 2 3 4 5 6 7 8 9 10 11 12 13 14 15 16 17 18 19 20 21 22 23 24 25 26 27 28 29 30 31 32 33 34 35 36 37 38 39 40 41 42 43 44 45 46 47 48 49 50

000
ASUS43 KFSD 200802
RWRSD

WEATHER ROUNDUP FOR SOUTH DAKOTA
NATIONAL WEATHER SERVICE SIOUX FALLS SD
300 AM CDT SUN MAY 20 2018

NOTE: "FAIR" INDICATES FEW OR NO CLOUDS BELOW 12,000 FEET WITH NO
SIGNIFICANT WEATHER AND/OR OBSTRUCTIONS TO VISIBILITY.


SDZ001>005-009-010-012>017-200900-
NORTHWEST AND NORTH CENTRAL SOUTH DAKOTA

CITY           SKY/WX    TMP DP  RH WIND       PRES   REMARKS
BUFFALO          N/A     45  33  63 E7        30.19S
FAITH            N/A     44  37  76 CALM      30.25S
MOBRIDGE       PTCLDY    46  38  73 N7        30.23S
$$

SDZ012>016-024>037-041>051-057-063-072>074-200900-
SOUTHWEST AND SOUTH CENTRAL SOUTH DAKOTA

CITY           SKY/WX    TMP DP  RH WIND       PRES   REMARKS
RAPID CTY ARPT MOCLDY    41  36  82 NE7       30.26R
PIERRE         MOCLDY    47  41  80 NE12      30.21S
CUSTER         MOCLDY    38  30  73 NE5       30.26R
ELLSWORTH AFB  MOCLDY    46  36  68 CALM      30.25S
PHILIP         MOCLDY    45  38  76 CALM      30.24S
PINE RIDGE     MOCLDY    42  41  96 CALM      30.25S
SPEARFISH      FAIR      41  37  87 S5        30.26S
WINNER         FAIR      45  38  76 NW6       30.19S
$$

SDZ004>011-016>023-039-040-200900-
NORTHEAST SOUTH DAKOTA

CITY           SKY/WX    TMP DP  RH WIND       PRES   REMARKS
ABERDEEN       PTCLDY    43  35  73 N7        30.22S
WATERTOWN      PTCLDY    49  37  63 NE9       30.19R
BROOKINGS      CLOUDY    50  42  74 NE10      30.17R
SISSETON         N/A     43  33  68 NW5       30.21S
$$

SDZ017-020-022-023-036>040-048>070-200900-
SOUTHEAST SOUTH DAKOTA

CITY           SKY/WX    TMP DP  RH WIND       PRES   REMARKS
SIOUX FALLS    CLOUDY    53  43  68 NE17      30.13R
HURON          MOCLDY    47  38  71 NE7       30.18S
CHAMBERLAIN    MOCLDY    51  38  61 N8        30.18S
MITCHELL       CLOUDY    56  43  61 NE8       30.16S
YANKTON        LGT RAIN  54  52  93 NE8       30.12R
$$

ABBREVIATIONS USED IN REMARKS
   TC - TEMPERATURE IN CELSIUS
  WCI - WIND CHILL INDEX
   HX - HEAT INDEX
  VSB - VISIBILITY





USA.gov is the U.S. government's official web portal to all federal, state and local government web resources and services.